Home   Weather   Grudziądz   Past weeks

Flag for Poland Past Weather in Grudziądz, Poland — Yesterday and Last 2 Weeks

Now
61 °F

Overcast.


Feels Like: 61 °F
Forecast: 48 / 66 °F
Wind: 2 mph from Northwest

Location: Torun

Current Time: Sep 30, 2016 at 7:03:40 AM

Latest Report: Sep 30, 2016 at 6:00 AM


Visibility: 28 mi

Pressure: 29.84 "Hg

Humidity: 73%

Dew Point: 53 °F

Location of GrudziądzLocation

Past Weather in Grudziądz — Graph

°F

Grudziądz Temperature Yesterday

Maximum temperature yesterday: 73 °F (at 2:00 PM)
Minimum temperature yesterday: 58 °F (at 5:00 AM)
Average temperature yesterday: 65 °F

High & Low Weather Summary for the Past Weeks

 TemperatureHumidityPressure
High76 °F (Sep 16, 3:00 PM)98% (Sep 22, 4:00 AM)30.38 "Hg (Sep 22, 4:00 AM)
Low35 °F (Sep 25, 7:00 AM)30% (Sep 16, 4:00 PM)29.80 "Hg (Sep 30, 4:00 AM)
Average55 °F71%30.12 "Hg
* Reported Sep 15 5:00 AM — Sep 30 5:00 AM, Grudziądz, Weather by CustomWeather, © 2016

Note: Actual official high and low records may vary slightly from our data, if they occured in-between our weather recording intervals... More about our weather records

Advertising

Grudziądz Weather History for the Previous 24 Hours

Scroll right to see more
 ConditionsComfort  
Time TempWeatherWind HumidityBarometerVisibility
5:00 AM
Fri, Sep 30
62 °FPassing clouds.2 mph69%29.82 "Hg25 mi
4:00 AM62 °FPassing clouds.2 mph69%29.80 "Hg31 mi
3:00 AM63 °FPassing clouds.2 mph66%29.80 "Hg25 mi
2:00 AM64 °FPassing clouds.2 mph63%29.80 "Hg25 mi
1:00 AM65 °FPassing clouds.3 mph58%29.81 "Hg25 mi
12:00 AM66 °FPassing clouds.3 mph53%29.82 "Hg31 mi
11:00 PM
Thu, Sep 29
66 °FPassing clouds.3 mph47%29.83 "Hg31 mi
10:00 PM67 °FPassing clouds.3 mph48%29.84 "Hg22 mi
9:00 PM68 °FPassing clouds.3 mph49%29.84 "Hg31 mi
8:00 PM69 °FPassing clouds.3 mph56%29.84 "Hg22 mi
7:00 PM70 °FOvercast.3 mph61%29.85 "Hg25 mi
6:00 PM71 °FOvercast.3 mph60%29.85 "Hg25 mi
5:00 PM71 °FOvercast.3 mph60%29.87 "Hg28 mi
4:00 PM73 °FOvercast.5 mph57%29.88 "Hg25 mi
3:00 PM73 °FOvercast.3 mph56%29.91 "Hg22 mi
2:00 PM73 °FOvercast.3 mph57%29.94 "Hg17 mi
1:00 PM71 °FOvercast.2 mph59%29.97 "Hg19 mi
11:00 AM66 °FOvercast.3 mph64%30.02 "Hg22 mi
9:00 AM61 °FOvercast.2 mph73%30.04 "Hg19 mi
8:00 AM61 °FOvercast.2 mph75%30.04 "Hg16 mi
7:00 AM59 °FOvercast.1 mph78%30.03 "Hg19 mi
Weather by CustomWeather, © 2016

See weather overviewHow to use our weather pages